Location: ??????
(38.0131°N, 23.7723°E)
Time: 05:42:43
(UTC+00:00)

YAOGAN 1 - Pass Details

Date: 17 October 2021
Orbit: 618 x 620 km, 97.9° (Epoch: 28 November)

Event Time Altitude Azimuth Distance (km) Brightness Sun altitude
Rises 16:40:49 0° 146° (SE) 2,882 5.7 -11.8°
Reaches altitude 10° 16:43:07 10° 137° (SE) 1,981 4.8 -12.3°
Maximum altitude 16:47:03 35° 72° (ENE) 998 3.1 -13.1°
Drops below altitude 10° 16:51:00 10° 6° (N) 1,994 5.1 -13.9°
Sets 16:53:19 0° 358° (N) 2,904 6.0 -14.3°
